Terug naar catalogus

STARLINK-37149

ActiefCommunicatieSSO
NORAD 68309·PAYLOAD·🇺🇸 United States

Gelanceerd Mar 20, 2026 vanaf Vandenberg Space Force Base

Loading…

Volgende Passages (komende 24 uur)

TLE

VersSource: CelesTrak SupGP

Epoch: Sep 15, 2026, 03:06 UTC

1 68309C 26057R   26258.12965278  .00015495  00000+0  48079-3 0  2581
2 68309  97.2858  23.6374 0000943  91.9042 231.5321 15.33445854    13

Volg STARLINK-37149 in realtime met AllMySat

Download on the App Store